Flag for U.S.A. Weather past 2 weeks in Angels Camp, California, U.S.A.

Now
50 °F

Fog.


Feels Like: 50 °F
Forecast: 45 / 51 °F
Wind: No wind

Location: Modesto City-County-Sham Field

Current Time: Dec 18, 2014 at 7:44:16 PM

Latest Report: Dec 18, 2014 at 6:53 PM


Visibility: 6 mi

Pressure: 30.17 "Hg

Humidity: 93%

Dew point: 48 °F

Location of Angels CampLocation

Historic Weather in Angels Camp — Graph

°F

Angels Camp temperature yesterday

Maximum temperature yesterday: 60 °F (at 2:53 PM)
Minimum temperature yesterday: 45 °F (at 6:53 AM)
Average temperature yesterday: 53 °F

Past Weeks' High & Low Weather Summary

 TemperatureHumidityPressure
High71 °F (Dec 6, 1:53 PM)100% (Dec 4, 6:00 AM)32.98 "Hg (Dec 4, 6:00 AM)
Low43 °F (Dec 14, 2:53 AM)54% (Dec 11, 9:53 AM)29.60 "Hg (Dec 11, 11:53 AM)
Average54 °F87%30.04 "Hg
* Reported Dec 3 5:53 PM — Dec 18 5:53 PM, Angels Camp, Weather by CustomWeather, © 2014

Note: Actual official high and low records may vary slightly from our data, if they occured in-between our weather recording intervals... More about our weather records

Advertising

Angels Camp weather history for previous 24 hours

 ConditionsComfort  
Time TempWeatherWind HumidityBarometerVisibility
5:53 PM
Dec 18
54 °FClear.No wind80%30.17 "Hg10 mi
4:53 PM57 °FClear.3 mph74%30.14 "Hg10 mi
3:53 PM59 °FSunny.6 mph64%30.15 "Hg10 mi
2:53 PM60 °FScattered clouds.7 mph62%30.15 "Hg10 mi
1:53 PM60 °FSunny.6 mph62%30.15 "Hg10 mi
12:53 PM59 °FSunny.8 mph62%30.17 "Hg10 mi
11:53 AM58 °FSunny.8 mph67%30.19 "Hg10 mi
10:53 AM57 °FSunny.8 mph69%30.20 "Hg10 mi
9:53 AM54 °FSunny.9 mph77%30.18 "Hg10 mi
8:53 AM51 °FSunny.7 mph89%30.16 "Hg7 mi
7:53 AM50 °FFog.7 mph89%30.15 "Hg6 mi
6:53 AM51 °FOvercast.5 mph89%30.15 "Hg7 mi
5:53 AM51 °FOvercast.3 mph89%30.12 "Hg9 mi
4:53 AM51 °FOvercast.6 mph89%30.11 "Hg10 mi
3:53 AM51 °FMostly cloudy.8 mph89%30.11 "Hg7 mi
2:53 AM51 °FFog.7 mph92%30.11 "Hg6 mi
1:53 AM51 °FLight rain. Fog.7 mph92%30.11 "Hg5 mi
12:53 AM51 °FOvercast.6 mph92%30.10 "Hg7 mi
11:53 PM
Dec 17
52 °FMostly cloudy.6 mph89%30.11 "Hg10 mi
10:53 PM51 °FLight rain. Mostly cloudy.6 mph89%30.11 "Hg10 mi
9:53 PM52 °FLight rain. Mostly cloudy.3 mph86%30.11 "Hg10 mi
8:53 PM54 °FOvercast.5 mph80%30.11 "Hg10 mi
7:53 PM54 °FOvercast.7 mph80%30.09 "Hg10 mi
Weather by CustomWeather, © 2014

See weather overviewHow to use our weather pages